Regional Weather Roundup
Issued by NWS Charleston, SC

Current Version | Previous Version | Text Only | Print | Product List | Glossary Off
Versions: 1 2 3 4 5 6 7 8 9 10 11 12 13 14 15 16 17 18 19 20 21 22 23 24 25 26 27 28 29 30 31 32 33 34 35 36 37 38 39 40 41 42 43 44 45 46 47 48 49 50

000
ASUS42 KCHS 262126
RWRCHS

REGIONAL WEATHER ROUNDUP
NATIONAL WEATHER SERVICE CHARLESTON SC
400 PM EST SUN FEB 26 2017

NOTE: "FAIR" INDICATES FEW OR NO CLOUDS BELOW 12,000 FEET WITH NO
SIGNIFICANT WEATHER AND/OR OBSTRUCTIONS TO VISIBILITY.

NOT ALL STATIONS ARE QUALITY CONTROLLED. USE DATA WITH CAUTION...
ESPECIALLY DEWPOINT OBSERVATIONS.

SCZ027-030-031-034>040-042>050-262200-
...SOUTHEAST SOUTH CAROLINA...

CITY           SKY/WX    TMP DP  RH WIND       PRES   REMARKS
N CHARLESTON   SUNNY     67  18  15 NW6       30.18S
WATERFRONT PRK   N/A     58  38  47 S8        30.18F
MOUNT PLEASANT FAIR      59  36  41 S13       30.20R
JOHNS ISLAND   FAIR      59  34  38 S12       30.20S
PINOPOLIS        N/A     57  27  30 NE6       30.10F
MONCKS CORNER  FAIR      61  21  21 NE5       30.19S
SUMMERVILLE    FAIR      64  19  17 W8        30.19S
BEAUFORT MCAS  SUNNY     68  22  17 NW5       30.18F
BEAUFORT ARPT  FAIR      61  36  39 SE7       30.19S
HILTON HEAD IS SUNNY     59  32  36 S7        30.21S
WALTERBORO     CLEAR     64  21  19 N3        30.19S
ALLENDALE      FAIR      66  14  13 VRB3      30.17S

...SOUTHERN MIDLANDS AND PEE DEE...

CITY           SKY/WX    TMP DP  RH WIND       PRES   REMARKS
GEORGETOWN     FAIR      59  32  36 S8G16     30.20S
KINGSTREE      FAIR      61  14  16 W8        30.19S
ORANGEBURG     SUNNY     64  14  14 VRB3      30.18S
BARNWELL       FAIR      66  19  16 CALM      30.18S
AIKEN          FAIR      63  18  17 W6        30.21R
MANNING        FAIR     N/A N/A N/A MISG      30.19S
COLUMBIA       SUNNY     64  21  19 VRB5      30.18S
SUMTER         SUNNY     62  16  16 W5        30.16S
FLORENCE       SUNNY     59  19  21 N3        30.19S
MYRTLE BEACH   SUNNY     57  30  35 S12       30.20R
N MYRTLE BEACH SUNNY     57  31  37 S10       30.18S

$$

GAZ063-065-086>088-099>101-113>116-118-119-134>141-150-262200-
...SOUTHEAST GEORGIA...

CITY           SKY/WX    TMP DP  RH WIND       PRES   REMARKS
SAVANNAH ARPT  SUNNY     68  19  15 VRB7      30.19S
HUNTER AAF     SUNNY     69  30  23 CALM      30.16F
FORT STEWART   SUNNY     67  21  18 N3        30.17S
STATESBORO     SUNNY     66  27  22 CALM      30.19S
SYLVANIA       CLEAR    N/A N/A N/A NW6       30.19S
CLAXTON        FAIR      66  26  22 CALM      30.19S

...CSRA...CENTRAL AND FAR SOUTHEAST GEORGIA...

CITY           SKY/WX    TMP DP  RH WIND       PRES   REMARKS
THOMSON        SUNNY     66  24  20 CALM      30.21S
AUGUSTA-BUSH   SUNNY     68  17  14 N5        30.16F
AUGUSTA-DANIEL SUNNY     65  13  13 NW9       30.18S
SWAINSBORO     FAIR      66  19  16 SE5       30.19S
VIDALIA        SUNNY     68  32  26 SW3       30.19S
EASTMAN        FAIR     N/A N/A N/A CALM      30.20F
HAZLEHURST     FAIR      68  26  20 CALM      30.17F
ALMA           SUNNY     66  19  16 VRB3      30.19S
WAYCROSS       SUNNY     70  26  19 CALM      30.19S
JESUP          FAIR      68  14  12 CALM      30.20R
BAXLEY         FAIR      66  32  28 CALM      30.19S
BRUNSWICK      SUNNY     66  41  39 E10       30.20S
SAINT SIMONS   SUNNY     63  36  36 E9        30.20S

$$

SCZ027-028-034-036>038-045-046-048>050-GAZ119-141-262200-
...LAKE AND SUPPLEMENTAL COASTAL OBSERVATIONS...

STATION/POSITION TIME  TEMP    WIND        PRES    WAVE   SWELL
                       AIR SEA DIR/SP/G            HT/PER HT/PER/DIR
                 (UTC) (F)     (DEG/KT/KT) (MB)    (FT/S) (FT/S/D)
WINYAH BAY       2045   56     160/  9     1022.0S
LAKE MURRAY      2050   59     140/  2/  6 1021.7F
ACE BASIN NERRS  2045   61     170/  3     1022.0S
FORT PULASKI     2100   62 63  160/  7/  9 1022.7
SAPELO ISLAND    2100   65     120/  6     1022.0

$$

ANZ835-935-AMZ111-154-330-350-352-354-370-450-454-472-262200-
...C-MAN AND BUOY OBSERVATIONS...

STATION/POSITION TIME  TEMP    WIND        PRES    WAVE   SWELL
                       AIR SEA DIR/SP/G            HT/PER HT/PER/DIR
                 (UTC) (F)     (DEG/KT/KT) (MB)    (FT/S) (FT/S/D)
BUOY 41004       2050   59 70   CALM  /  2 1022.6F   3/10   3/ 90/10
BUOY 41008       2050   58 63   60/  6/  8 1023.1S   2/ 9   2/ 90/ 9
FOLLY BEACH CMAN 2100   57     200/ 10/ 12 1023.4R
CAPERS NEARSHORE 2108   56 62  190/  8/ 12 1022.6R
FRIPP NEARSHORE  2108   58 62  170/ 10/ 12 1022.4F


STATION/POSITION TIME  TEMP    WIND        PRES    WAVE   SWELL
                       AIR SEA DIR/SP/G            HT/PER HT/PER/DIR
                 (UTC) (F)     (DEG/KT/KT) (MB)    (FT/S) (FT/S/D)
5E ST. MARYS GA  2100      65                N/A     2/ 8   2/ 90/11
FRYING PAN BUOY  2110   56 69  250/  6/ 10 1022.9
BUOY 41025       2050   53 72  300/  6/ 10 1021.9R   4/ 9   5/110/ 9
CAPE LOOKOUT NC  2100   54     210/  7/  9 1021.8R
BUOY 41002       2050   68 71  350/ 10/ 14 1020.4R   7/ 7   7/300/ 7
BUOY 41010       NOT AVBL
ST AUGUSTINE FL  2100   59 67   10/ 11/ 12 1023.8R


$$




USA.gov is the U.S. government's official web portal to all federal, state and local government web resources and services.